Regional Weather Roundup
Issued by NWS Little Rock, AR

Home | Current Version | Previous Version | Graphics & Text | Print | Product List | Glossary On
Versions: 1 2 3 4 5 6 7 8 9 10 11 12 13 14 15 16 17 18 19 20 21 22 23 24 25 26 27 28 29 30 31 32 33 34 35 36 37 38 39 40 41 42 43 44 45 46 47 48 49 50
000
ASUS44 KLZK 031505
RWRLZK

WEATHER ROUNDUP FOR ARKANSAS
NATIONAL WEATHER SERVICE LITTLE ROCK AR
900 AM CST TUE MAR 03 2015

NOTE: "FAIR" INDICATES FEW OR NO CLOUDS BELOW 12,000 FEET WITH NO
SIGNIFICANT WEATHER AND/OR OBSTRUCTIONS TO VISIBILITY.

ARZ001-003-010-029-031600-
NORTHWEST ARKANSAS

CITY           SKY/WX    TMP DP  RH WIND       PRES   REMARKS
FAYETTEVILLE   LGT RAIN  44  44 100 S13       29.95S FOG
FORT SMITH     FOG       36  35  96 NE7       30.01S VSB 1/4
HARRISON       CLOUDY    47  46  97 SE6       29.92S
BENTONVILLE    CLOUDY    45  43  93 SW15G22   29.93S
ROGERS         LGT RAIN  44  44 100 SW17G26   29.92S FOG
SILOAM SPGS    CLOUDY    41  37  87 S20G25    29.94S
HIGHFILL       CLOUDY    44  43  96 SW21G28   29.91S FOG
SPRINGDALE     FOG       45  45 100 S18G28    29.95F VSB 3/4
$$

ARZ004-005-016-031600-
NORTH CENTRAL ARKANSAS

CITY           SKY/WX    TMP DP  RH WIND       PRES   REMARKS
BATESVILLE     CLOUDY    36  34  93 S3        30.03S
FLIPPIN        CLOUDY    39  36  87 E3        29.94S
MTN HOME       CLOUDY    39  38  96 SE6       29.94F FOG
$$

ARZ040-041-031600-
WEST CENTRAL ARKANSAS

CITY           SKY/WX    TMP DP  RH WIND       PRES   REMARKS
MENA           CLOUDY    45  45 100 SW7       30.02R
MOUNT IDA      LGT RAIN  38  37  97 E3        30.01R VSB 1/2
$$

ARZ009-017-025-026-028-031600-
NORTHEAST ARKANSAS

CITY           SKY/WX    TMP DP  RH WIND       PRES   REMARKS
CORNING        FAIR      36  36 100 SW14      30.03F FOG
JONESBORO      CLOUDY    37  37 100 S9        30.04S FOG
NEWPORT        FOG       35  35 100 S10       30.06S VSB 3/4 WCI  27
WALNUT RIDGE   CLOUDY    36  32  87 S12       30.03F
BLYTHEVILLE    FOG       40  40 100 S10       30.05F VSB 3/4
$$

ARZ022-023-033-042-044-031600-
CENTRAL ARKANSAS

CITY           SKY/WX    TMP DP  RH WIND       PRES   REMARKS
LITTLE ROCK    FOG       38  36  92 S6        30.07F VSB 1/4
N LITTLE ROCK  CLOUDY    37  37 100 S7        30.07F
JACKSONVILLE   CLOUDY    38  37  99 VRB5      30.05F FOG
HOT SPRINGS    FOG       37  37 100 CALM      30.06S VSB 1/4
RUSSELLVILLE   CLOUDY    59  37  44 SE6       30.02S HAZE
CLINTON        FOG       36  36 100 CALM      30.05S VSB 1/4
$$

ARZ036-031600-
EAST ARKANSAS

CITY           SKY/WX    TMP DP  RH WIND       PRES   REMARKS
WEST MEMPHIS   CLOUDY    45  45 100 S9        30.06F FOG
$$

ARZ050-053-066-070-073-031600-
SOUTHWEST ARKANSAS

CITY           SKY/WX    TMP DP  RH WIND       PRES   REMARKS
ARKADELPHIA    FOG       37  37 100 CALM      30.09S VSB 1/2
CAMDEN         FOG       39  37  93 MISG      30.09S VSB 3/4
TEXARKANA      FOG       42  42 100 S5        30.05S VSB 3/4
EL DORADO      CLOUDY    42  41  96 CALM      30.08R FOG
DE QUEEN       FOG       39  38  96 E3        30.04F VSB 1/4
$$

ARZ056-057-069-031600-
SOUTHEAST ARKANSAS

CITY           SKY/WX    TMP DP  RH WIND       PRES   REMARKS
PINE BLUFF     FOG       38  38 100 S3        30.08R VSB 1
STUTTGART      CLOUDY    39  37  93 SW8       30.09R
MONTICELLO     CLOUDY    42  41  96 CALM      30.08F FOG

$$





USA.gov is the U.S. government's official web portal to all federal, state and local government web resources and services.